Time,TemperatureF,DewpointF,PressureIn,WindDirection,WindDirectionDegrees,WindSpeedMPH,WindSpeedGustMPH,Humidity,HourlyPrecipIn,Conditions,Clouds,dailyrainin,SoftwareType,DateUTC
2014-09-17 00:13:00,66.0,64.0,29.87,ENE,66,1.0,-999.0,92,-99.99,,,-99.99,,2014-09-17 05:13:00,
2014-09-17 00:23:00,66.0,64.0,29.87,ENE,66,1.0,-999.0,92,-99.99,,,-99.99,,2014-09-17 05:23:00,
2014-09-17 00:43:00,66.0,64.0,29.86,ENE,66,1.0,-999.0,92,-99.99,,,-99.99,,2014-09-17 05:43:00,
2014-09-17 00:53:00,66.0,64.0,29.86,ENE,66,1.0,-999.0,92,-99.99,,,-99.99,,2014-09-17 05:53:00,
2014-09-17 01:12:00,66.0,64.0,29.86,ENE,66,0.0,-999.0,92,-99.99,,,-99.99,,2014-09-17 06:12:00,
2014-09-17 01:22:00,66.0,64.0,29.86,ENE,66,1.0,-999.0,92,-99.99,,,-99.99,,2014-09-17 06:22:00,
2014-09-17 01:52:00,65.0,63.0,29.86,ENE,66,1.0,-999.0,92,-99.99,,,-99.99,,2014-09-17 06:52:00,
2014-09-17 02:22:00,65.0,63.0,29.85,ENE,66,1.0,-999.0,92,-99.99,,,-99.99,,2014-09-17 07:22:00,
2014-09-17 02:42:00,66.0,63.0,29.85,ENE,69,2.0,-999.0,91,-99.99,,,-99.99,,2014-09-17 07:42:00,
2014-09-17 02:53:00,66.0,63.0,29.85,ESE,119,2.0,-999.0,91,-99.99,,,-99.99,,2014-09-17 07:53:00,
2014-09-17 03:12:00,67.0,64.0,29.85,SE,129,2.0,-999.0,91,-99.99,,,-99.99,,2014-09-17 08:12:00,
2014-09-17 03:22:00,67.0,64.0,29.84,SE,139,2.0,-999.0,91,-99.99,,,-99.99,,2014-09-17 08:22:00,
2014-09-17 03:42:00,67.0,64.0,29.84,SE,141,2.0,-999.0,91,-99.99,,,-99.99,,2014-09-17 08:42:00,
2014-09-17 03:53:00,67.0,64.0,29.83,SE,141,2.0,-999.0,90,-99.99,,,-99.99,,2014-09-17 08:53:00,
2014-09-17 04:12:00,67.0,64.0,29.83,SE,141,1.0,-999.0,90,-99.99,,,-99.99,,2014-09-17 09:12:00,
2014-09-17 04:23:00,67.0,64.0,29.83,SE,142,2.0,-999.0,90,-99.99,,,-99.99,,2014-09-17 09:23:00,
2014-09-17 04:44:00,67.0,64.0,29.82,SSE,161,2.0,-999.0,90,-99.99,,,-99.99,,2014-09-17 09:44:00,
2014-09-17 04:54:00,67.0,64.0,29.82,SSE,163,2.0,-999.0,90,-99.99,,,-99.99,,2014-09-17 09:54:00,
2014-09-17 05:13:00,67.0,64.0,29.81,South,183,3.0,-999.0,90,-99.99,,,-99.99,,2014-09-17 10:13:00,
2014-09-17 05:23:00,67.0,64.0,29.81,South,178,3.0,-999.0,90,-99.99,,,-99.99,,2014-09-17 10:23:00,
2014-09-17 05:53:00,67.0,64.0,29.80,SSE,168,2.0,-999.0,90,-99.99,,,-99.99,,2014-09-17 10:53:00,
2014-09-17 06:23:00,67.0,64.0,29.80,South,181,2.0,-999.0,90,-99.99,,,-99.99,,2014-09-17 11:23:00,
2014-09-17 06:43:00,67.0,64.0,29.80,South,184,2.0,-999.0,90,-99.99,,,-99.99,,2014-09-17 11:43:00,
2014-09-17 06:53:00,67.0,64.0,29.79,SSW,196,5.0,-999.0,90,-99.99,,,-99.99,,2014-09-17 11:53:00,
2014-09-17 07:13:00,67.0,64.0,29.79,SSW,205,5.0,-999.0,90,-99.99,,,-99.99,,2014-09-17 12:13:00,
2014-09-17 07:22:00,67.0,64.0,29.79,SSW,196,4.0,-999.0,90,-99.99,,,-99.99,,2014-09-17 12:22:00,
2014-09-17 07:42:00,67.0,64.0,29.78,South,182,4.0,-999.0,90,-99.99,,,-99.99,,2014-09-17 12:42:00,
2014-09-17 07:53:00,67.0,64.0,29.79,SSW,197,6.0,-999.0,90,-99.99,,,-99.99,,2014-09-17 12:53:00,
2014-09-17 08:23:00,68.0,65.0,29.80,North,360,4.0,-999.0,90,-99.99,,,-99.99,,2014-09-17 13:23:00,
2014-09-17 08:53:00,68.0,65.0,29.80,WSW,257,4.0,-999.0,90,-99.99,,,-99.99,,2014-09-17 13:53:00,
2014-09-17 09:23:00,70.0,67.0,29.80,WSW,248,4.0,-999.0,90,-99.99,,,-99.99,,2014-09-17 14:23:00,
2014-09-17 09:42:00,71.0,69.0,29.80,SW,236,5.0,-999.0,93,-99.99,,,-99.99,,2014-09-17 14:42:00,
2014-09-17 09:52:00,73.0,70.0,29.80,WSW,245,4.0,-999.0,91,-99.99,,,-99.99,,2014-09-17 14:52:00,
2014-09-17 10:22:00,75.0,71.0,29.80,SW,231,6.0,-999.0,87,-99.99,,,-99.99,,2014-09-17 15:22:00,
2014-09-17 10:43:00,76.0,71.0,29.79,WSW,244,5.0,-999.0,84,-99.99,,,-99.99,,2014-09-17 15:43:00,
2014-09-17 10:54:00,77.0,71.0,29.79,SW,223,7.0,-999.0,83,-99.99,,,-99.99,,2014-09-17 15:54:00,
2014-09-17 11:23:00,79.0,72.0,29.78,West,259,5.0,-999.0,80,-99.99,,,-99.99,,2014-09-17 16:23:00,
2014-09-17 11:43:00,80.0,72.0,29.78,West,275,7.0,-999.0,78,-99.99,,,-99.99,,2014-09-17 16:43:00,
2014-09-17 11:53:00,81.0,73.0,29.78,West,281,5.0,-999.0,77,-99.99,,,-99.99,,2014-09-17 16:53:00,
2014-09-17 12:24:00,81.0,72.0,29.78,West,265,6.0,-999.0,74,-99.99,,,-99.99,,2014-09-17 17:24:00,
2014-09-17 12:43:00,81.0,72.0,29.78,WSW,257,6.0,-999.0,75,-99.99,,,-99.99,,2014-09-17 17:43:00,
2014-09-17 12:53:00,82.0,73.0,29.77,WSW,252,8.0,-999.0,74,-99.99,,,-99.99,,2014-09-17 17:53:00,
2014-09-17 13:22:00,83.0,73.0,29.76,West,259,7.0,-999.0,71,-99.99,,,-99.99,,2014-09-17 18:22:00,
2014-09-17 13:52:00,83.0,72.0,29.75,West,273,6.0,-999.0,70,-99.99,,,-99.99,,2014-09-17 18:52:00,
2014-09-17 14:12:00,84.0,73.0,29.75,West,260,6.0,-999.0,70,-99.99,,,-99.99,,2014-09-17 19:12:00,
2014-09-17 14:22:00,85.0,74.0,29.74,West,274,6.0,-999.0,70,-99.99,,,-99.99,,2014-09-17 19:22:00,
2014-09-17 14:42:00,84.0,74.0,29.74,West,275,5.0,-999.0,71,-99.99,,,-99.99,,2014-09-17 19:42:00,
2014-09-17 14:52:00,85.0,73.0,29.74,SSW,213,5.0,-999.0,68,-99.99,,,-99.99,,2014-09-17 19:52:00,
2014-09-17 15:02:00,85.0,73.0,29.74,SSW,213,5.0,-999.0,68,-99.99,,,-99.99,,2014-09-17 20:02:00,
2014-09-17 15:12:00,85.0,73.0,29.74,SSW,213,5.0,-999.0,68,-99.99,,,-99.99,,2014-09-17 20:12:00,
2014-09-17 15:23:00,85.0,73.0,29.74,SSW,213,5.0,-999.0,68,-99.99,,,-99.99,,2014-09-17 20:23:00,
2014-09-17 15:52:00,85.0,73.0,29.71,WSW,241,6.0,-999.0,67,-99.99,,,-99.99,,2014-09-17 20:52:00,
2014-09-17 16:22:00,86.0,73.0,29.70,SSW,198,5.0,-999.0,66,-99.99,,,-99.99,,2014-09-17 21:22:00,
2014-09-17 16:44:00,78.0,67.0,29.71,ESE,114,7.0,-999.0,69,-99.99,,,-99.99,,2014-09-17 21:44:00,
2014-09-17 17:23:00,74.0,67.0,29.72,East,79,7.0,-999.0,78,-99.99,,,-99.99,,2014-09-17 22:23:00,
2014-09-17 17:43:00,70.0,66.0,29.72,NNE,24,13.0,-999.0,86,-99.99,,,-99.99,,2014-09-17 22:43:00,
2014-09-17 18:22:00,66.0,64.0,29.73,SE,134,6.0,-999.0,92,-99.99,,,-99.99,,2014-09-17 23:22:00,
2014-09-17 18:42:00,65.0,63.0,29.72,SE,141,3.0,-999.0,92,-99.99,,,-99.99,,2014-09-17 23:42:00,
2014-09-17 18:53:00,65.0,63.0,29.72,South,190,4.0,-999.0,92,-99.99,,,-99.99,,2014-09-17 23:53:00,
2014-09-17 19:12:00,65.0,63.0,29.73,SSW,199,5.0,-999.0,92,-99.99,,,-99.99,,2014-09-18 00:12:00,
2014-09-17 19:22:00,65.0,63.0,29.72,South,174,5.0,-999.0,92,-99.99,,,-99.99,,2014-09-18 00:22:00,